Terminal Aerodrome Forecast
Issued by NWS

Home | Current Version | Previous Version | Text Only | Print | Product List | Glossary On
Versions: 1 2 3 4 5 6 7 8 9 10 11 12 13 14 15 16 17 18 19 20 21 22 23 24 25 26 27 28 29 30 31 32 33 34 35 36
000
FTAK31 PANC 280550
TAFASN
TAF
PASN 280550Z 2806/2906 21020G30KT 6SM BR BKN010
     FM280900 22018G26KT P6SM -RA OVC007
     FM281400 22011KT P6SM OVC015
     FM290000 18012KT P6SM BKN030=

USA.gov is the U.S. government's official web portal to all federal, state and local government web resources and services.